OpenBCM V1.13 (Linux)

Packet Radio Mailbox

DB0FHN

[JN59NK Nuernberg]

 Login: GUEST





  
CX2SA  > KEPS     28.08.04 05:07l 277 Lines 7262 Bytes #999 (0) @ AMSAT
BID : ORB04240.D
Read: GUEST
Subj: Orbital Elements  04240.MICROS
Path: DB0FHN<DB0FOR<DB0SIF<DB0AIS<DB0ZDF<DB0GE<F6KFT<F6KMO<ON0BEL<ZL2TZE<
      ED1ZAC<CX2SA
Sent: 040828/0300Z @:CX2SA.LAV.URY.SA #:6110 [Minas] FBB7.00e $:ORB04240.D
From: CX2SA@CX2SA.LAV.URY.SA
To  : KEPS@AMSAT


HR AMSAT ORBITAL ELEMENTS FOR THE MICROSATS
FROM WA5QGD FORT WORTH,TX August 27, 2004
SEND SUBSCRIBE/UNSUBSCRIBE TO majordomo@amsat.org ONLY
BID: ORB04240.D
TO ALL RADIO AMATEURS BT

Satellite: UO-14
Catalog number: 20437
Epoch time:      04240.67324023
Element set:     578
Inclination:       98.2085 deg
RA of node:       260.6548 deg
Eccentricity:    0.0010749
Arg of perigee:   353.7991 deg
Mean anomaly:       6.3052 deg
Mean motion:   14.31367638 rev/day
Decay rate:       -1.4e-07 rev/day^2
Epoch rev:           76204
Checksum:              293

Satellite: AO-16
Catalog number: 20439
Epoch time:      04240.66143515
Element set:     265
Inclination:       98.2413 deg
RA of node:       275.1928 deg
Eccentricity:    0.0011236
Arg of perigee:     1.7552 deg
Mean anomaly:     358.3684 deg
Mean motion:   14.31625363 rev/day
Decay rate:        1.6e-07 rev/day^2
Epoch rev:           76209
Checksum:              286

Satellite: WO-18
Catalog number: 20441
Epoch time:      04240.12231993
Element set:     450
Inclination:       98.2561 deg
RA of node:       278.6986 deg
Eccentricity:    0.0012060
Arg of perigee:     3.2805 deg
Mean anomaly:     356.8442 deg
Mean motion:   14.31701120 rev/day
Decay rate:        3.2e-07 rev/day^2
Epoch rev:           76207
Checksum:              263

Satellite: LO-19
Catalog number: 20442
Epoch time:      04239.68645932
Element set:     214
Inclination:       98.2678 deg
RA of node:       282.3173 deg
Eccentricity:    0.0012499
Arg of perigee:     2.4546 deg
Mean anomaly:     357.6697 deg
Mean motion:   14.31872045 rev/day
Decay rate:        3.2e-07 rev/day^2
Epoch rev:           76207
Checksum:              318

Satellite: UO-22
Catalog number: 21575
Epoch time:      04240.17038524
Element set:     188
Inclination:       98.1985 deg
RA of node:       211.3162 deg
Eccentricity:    0.0006393
Arg of perigee:   253.9792 deg
Mean anomaly:     106.0695 deg
Mean motion:   14.39409180 rev/day
Decay rate:       1.52e-06 rev/day^2
Epoch rev:           68820
Checksum:              303

Satellite: KO-23
Catalog number: 22077
Epoch time:      04240.89710481
Element set:     288
Inclination:       66.0865 deg
RA of node:        40.6713 deg
Eccentricity:    0.0007880
Arg of perigee:   325.4765 deg
Mean anomaly:      34.5742 deg
Mean motion:   12.86425014 rev/day
Decay rate:       -3.7e-07 rev/day^2
Epoch rev:           56586
Checksum:              306

Satellite: AO-27
Catalog number: 22825
Epoch time:      04240.83732084
Element set:     928
Inclination:       98.2441 deg
RA of node:       246.0566 deg
Eccentricity:    0.0009405
Arg of perigee:    56.5968 deg
Mean anomaly:     303.6117 deg
Mean motion:   14.29081131 rev/day
Decay rate:       -2.8e-07 rev/day^2
Epoch rev:           56932
Checksum:              304

Satellite: IO-26
Catalog number: 22826
Epoch time:      04239.93783578
Element set:    0615
Inclination:      098.2423 deg
RA of node:       246.4845 deg
Eccentricity:    0.0010067
Arg of perigee:   054.4080 deg
Mean anomaly:     305.8039 deg
Mean motion:   14.29317734 rev/day
Decay rate:        3.6e-07 rev/day^2
Epoch rev:           56925
Checksum:              320

Satellite: KO-25
Catalog number: 22828
Epoch time:      04239.93016254
Element set:    0863
Inclination:      098.2358 deg
RA of node:       246.7159 deg
Eccentricity:    0.0010628
Arg of perigee:   035.7699 deg
Mean anomaly:     324.4198 deg
Mean motion:   14.29638207 rev/day
Decay rate:       -1.0e-08 rev/day^2
Epoch rev:           53747
Checksum:              332

Satellite: TO-31
Catalog number: 25396
Epoch time:      04239.92966229
Element set:    0106
Inclination:      098.5701 deg
RA of node:       309.4316 deg
Eccentricity:    0.0002089
Arg of perigee:   342.0972 deg
Mean anomaly:     018.0134 deg
Mean motion:   14.23631223 rev/day
Decay rate:       -4.3e-07 rev/day^2
Epoch rev:           31854
Checksum:              285

Satellite: GO-32
Catalog number: 25397
Epoch time:      04240.45511596
Element set:     547
Inclination:       98.5623 deg
RA of node:       307.9973 deg
Eccentricity:    0.0000939
Arg of perigee:    30.1238 deg
Mean anomaly:     330.0019 deg
Mean motion:   14.23049864 rev/day
Decay rate:       1.10e-06 rev/day^2
Epoch rev:           31855
Checksum:              293

Satellite: UO-36
Catalog number: 25693
Epoch time:      04240.97517222
Element set:     395
Inclination:       64.5590 deg
RA of node:       104.1094 deg
Eccentricity:    0.0047327
Arg of perigee:   250.0485 deg
Mean anomaly:     109.5524 deg
Mean motion:   14.78373889 rev/day
Decay rate:      -1.04e-06 rev/day^2
Epoch rev:           28847
Checksum:              320

Satellite: SO-41
Catalog number: 26545
Epoch time:      04240.24129026
Element set:     861
Inclination:       64.5573 deg
RA of node:       122.7885 deg
Eccentricity:    0.0016017
Arg of perigee:     2.1772 deg
Mean anomaly:     357.9403 deg
Mean motion:   14.79838700 rev/day
Decay rate:       1.38e-06 rev/day^2
Epoch rev:           21142
Checksum:              285

Satellite: MO-46
Catalog number: 26548
Epoch time:      04240.83338468
Element set:     961
Inclination:       64.5565 deg
RA of node:       107.2367 deg
Eccentricity:    0.0017113
Arg of perigee:   340.4792 deg
Mean anomaly:      19.5656 deg
Mean motion:   14.82382488 rev/day
Decay rate:       1.09e-06 rev/day^2
Epoch rev:           21179
Checksum:              323

Satellite: SO-42
Catalog number: 26549
Epoch time:      04240.88887227
Element set:     947
Inclination:       64.5520 deg
RA of node:       127.8319 deg
Eccentricity:    0.0016515
Arg of perigee:    20.4104 deg
Mean anomaly:     339.7655 deg
Mean motion:   14.78733995 rev/day
Decay rate:       2.54e-06 rev/day^2
Epoch rev:           21138
Checksum:              324

Satellite: NO-44
Catalog number: 26931
Epoch time:      04240.78420693
Element set:     842
Inclination:       67.0523 deg
RA of node:       263.4228 deg
Eccentricity:    0.0006552
Arg of perigee:   271.1535 deg
Mean anomaly:      88.8810 deg
Mean motion:   14.29317360 rev/day
Decay rate:       1.24e-06 rev/day^2
Epoch rev:           15183
Checksum:              288

Satellite: AO-49
Catalog number: 27605
Epoch time:      04239.68459620
Element set:     520
Inclination:       64.5596 deg
RA of node:       310.6607 deg
Eccentricity:    0.0081343
Arg of perigee:   297.6383 deg
Mean anomaly:      61.6491 deg
Mean motion:   14.71915586 rev/day
Decay rate:        4.8e-07 rev/day^2
Epoch rev:            9050
Checksum:              324

Satellite: SO-50
Catalog number: 27607
Epoch time:      04240.44974289
Element set:     502
Inclination:       64.5615 deg
RA of node:       312.3240 deg
Eccentricity:    0.0082557
Arg of perigee:   296.5387 deg
Mean anomaly:      62.7231 deg
Mean motion:   14.70702702 rev/day
Decay rate:       1.21e-06 rev/day^2
Epoch rev:            9053
Checksum:              282

Satellite: AO-51
Catalog number: 28375
Epoch time:      04240.71078172
Element set:      52
Inclination:       98.2548 deg
RA of node:       308.2557 deg
Eccentricity:    0.0085048
Arg of perigee:    37.5573 deg
Mean anomaly:     323.1515 deg
Mean motion:   14.40384430 rev/day
Decay rate:        1.8e-07 rev/day^2
Epoch rev:             836
Checksum:              290



Read previous mail | Read next mail


 15.04.2026 19:20:50lGo back Go up